Location: Crapeaumesnil
(49.6407°N, 2.7982°E)
Time: 21:40:14
(UTC+00:00)

Daily predictions for brighter satellites

Satellite Brightness Start Highest point End
(mag) Time Altitude Azimuth Time Altitude Azimuth Time Altitude Azimuth
SAR-Lupe-1 4.3 17:32:12 10° SE 17:35:39 49° ENE 17:39:07 10° N
Cosmos 1607 4.0 17:31:26 10° SSW 17:37:28 65° ESE 17:43:36 10° NE
ATLAS 5 CENTAUR R/B 3.0 17:33:26 10° NW 17:37:33 46° SW 17:42:37 10° SSE
Cosmos 1125 Rocket 3.7 17:32:48 10° NNW 17:37:51 49° ENE 17:42:53 10° SE
Cosmos 1315 Rocket 2.6 17:34:06 10° N 17:37:54 72° ENE 17:41:42 10° SSE
Cosmos 2061 Rocket 4.1 17:31:50 10° N 17:38:08 56° ENE 17:44:19 10° SSE
ARIANE 6 FM1 Upper Stage 4.4 17:39:00 10° NNW 17:41:40 17° NNE 17:44:20 10° ENE
CZ-4 R/B 4.3 17:37:56 10° SSE 17:41:52 66° ENE 17:45:50 10° N
SL-16 R/B 3.5 17:36:24 10° N 17:42:20 50° WNW 17:48:17 10° SW
Cosmos 1455 Rocket 4.1 17:38:57 10° NNE 17:42:29 24° ENE 17:46:00 10° SE
CZ-4C R/B 1.9 17:39:15 10° SSW 17:43:22 59° SE 17:48:38 10° NE
NOSS 3-3 (C) 4.0 17:39:01 10° SSW 17:43:57 46° ESE 17:49:47 10° NE
BREEZE-M DEB (TANK) 3.3 17:40:13 10° WNW 17:44:31 80° SSW 17:50:55 10° ESE
USA 306 2.6 17:42:01 10° WNW 17:45:00 45° SW 17:47:02 10° SE
YAOGAN 1 2.7 17:42:42 10° SSE 17:46:50 52° ENE 17:50:59 10° N
Cosmos 158 Rocket 3.8 17:42:19 10° SSW 17:47:09 79° ESE 17:52:03 10° NNE
SeaSat 1 2.6 17:44:05 10° SSE 17:48:58 79° WSW 17:53:54 10° NNW
SAR-Lupe-4 3.5 17:48:13 10° SSE 17:51:46 79° ENE 17:55:22 10° NNW
NOAA 6 4.3 17:49:56 10° SE 17:54:48 45° ENE 17:59:43 10° N
Spot 4 Rocket 4.1 17:50:23 10° SE 17:55:21 55° ENE 18:00:21 10° N
Cosmos 2228 4.3 17:52:59 10° NNE 17:56:02 19° ENE 17:59:05 10° ESE
COSMO-SKYMED 1 2.9 17:52:21 10° NNE 17:56:12 37° E 18:00:02 10° SSE
Okean 1 Rocket 3.0 17:52:35 10° N 17:56:59 61° ENE 18:01:17 10° SSE
PSLV R/B 3.8 17:53:34 10° SE 17:57:27 42° ENE 18:01:20 10° N
CZ-2D R/B 4.2 17:55:56 10° S 17:58:51 40° W 18:01:46 10° NNW
USA 234 4.1 17:52:51 10° SE 17:59:13 53° SW 18:05:38 10° WNW
Okean 2 Rocket 3.0 17:54:55 10° N 17:59:20 75° E 18:03:41 10° SSE
Cosmos 2221 Rocket 3.8 17:55:30 10° SSE 17:59:48 49° E 18:04:09 10° NNE
Meteor 1-11 4.2 17:55:05 10° S 18:00:43 85° E 18:06:29 10° NNE
ARIANE 5 R/B 3.5 17:56:00 10° S 18:00:59 52° W 18:05:56 10° NNW
SPOT 5 4.3 18:00:21 12° E 18:03:15 19° ENE 18:06:43 10° NNE
BREEZE-M (TANK) 2.6 18:03:55 10° W 18:06:16 62° SSW 18:11:41 10° ESE
Cosmos 1378 Rocket 4.0 18:02:53 10° SSW 18:07:09 63° WNW 18:11:26 10° N
Radarsat Rocket 4.0 18:02:40 10° SSE 18:08:29 73° ENE 18:14:50 10° NNW
CZ-2D R/B 3.2 18:06:44 10° SSE 18:10:37 78° ENE 18:14:38 10° NNW
NOSS 3-3 (A) 3.7 18:06:15 10° SW 18:11:25 80° SE 18:17:42 10° NE
Sich 1 Rocket 3.6 18:07:57 10° N 18:12:31 83° E 18:17:05 10° SSE
Meteor 2-1 Rocket 4.4 18:11:11 10° NNW 18:17:00 83° W 18:22:54 10° S
IRAS Rocket 4.5 18:11:47 10° SE 18:17:08 48° ENE 18:22:32 10° N
Cosmos 2297 Rocket 2.3 18:11:53 10° S 18:17:21 52° ESE 18:22:50 10° NE
Tiangong 0.4 18:16:47 10° S 18:17:44 11° SSE 18:18:41 10° SE
GP-B 4.3 18:14:55 10° SSW 18:19:06 45° W 18:23:19 10° NNW
SKYMED 2 3.7 18:14:53 10° N 18:19:15 77° WNW 18:23:34 10° SSW
Cosmos 1025 Rocket 3.1 18:15:34 10° S 18:19:52 83° W 18:24:14 10° N
Orbus 7S? 4.5 18:11:29 10° WNW 18:21:31 69° NNE 18:24:45 19° ESE
Cosmos 2150 Rocket 4.3 18:17:30 10° NNW 18:22:27 43° ENE 18:27:13 11° SE
Resurs 01 Rocket 1.6 18:18:38 10° SSE 18:22:56 58° ENE 18:27:17 10° N
Cosmos 2298 Rocket 4.4 18:19:45 10° NNW 18:24:49 44° ENE 18:29:31 12° SE
Cosmos 2346 Rocket 4.4 18:18:38 10° S 18:24:54 82° E 18:31:11 10° N
Resurs 1-3 4.1 18:21:36 10° S 18:25:50 62° WSW 18:30:07 10° NNW
Cosmos 2344 4.3 18:23:24 10° SSE 18:29:46 27° ESE 18:32:55 20° ENE
NOSS 3-4 (A) 3.8 18:23:14 10° NW 18:29:49 73° NE 18:37:39 10° SE
USA 290 4.4 18:27:08 10° WSW 18:29:52 25° WNW 18:32:36 10° N
NOSS 3-4 (C) 3.8 18:23:30 10° NW 18:30:07 73° NE 18:37:56 10° SE
Cosmos 1782 3.5 18:28:47 10° NNE 18:31:36 27° ENE 18:31:36 27° ENE
CRYOSAT 2 4.3 18:30:49 10° N 18:35:41 61° E 18:40:30 10° S
Helios 1A Rocket 4.3 18:39:28 16° SSE 18:39:28 16° SSE 18:40:25 10° SSE
Lacrosse 5 rocket 2.4 18:40:16 10° WNW 18:43:26 30° NNW 18:44:57 22° NNE
CZ-4B R/B 4.3 18:43:54 35° E 18:44:19 37° ENE 18:47:55 10° N
Cosmos 1980 4.0 18:39:38 10° NNW 18:45:18 70° WSW 18:50:53 10° SSE
COSMOS 2428 4.5 18:40:56 10° NW 18:46:02 34° WSW 18:51:06 10° S
Meteor 1-27 4.2 18:40:19 10° NNW 18:46:07 87° ENE 18:51:58 10° S
ATLAS 2AS CENTAUR R/B 4.2 18:40:45 10° WNW 18:46:28 27° NNW 18:51:31 12° NE
Cosmos 2263 Rocket 3.3 18:43:06 10° SSE 18:46:41 24° ESE 18:46:41 24° ESE
SJ-6B 2.3 18:46:43 11° SSE 18:50:03 76° ENE 18:53:31 10° N
Terra 3.5 18:51:39 17° NE 18:51:39 17° NE 18:53:25 10° NNE
Cosmos 2237 Rocket 2.5 18:45:01 10° NNW 18:50:41 69° WSW 18:56:19 10° SSE
CARTOSAT-1 4.3 18:50:36 10° S 18:54:42 53° W 18:58:50 10° NNW
Cosmos 44 Rocket 3.3 18:55:38 10° SSW 19:00:28 60° ESE 19:02:15 37° ENE
ERS-1 Rocket 4.1 19:04:25 27° NE 19:04:25 27° NE 19:07:39 10° N
USA 267 3.7 18:59:48 22° NE 19:04:01 54° NNW 19:10:21 10° W
Cosmos 1816 Rocket 4.4 18:59:08 10° S 19:05:08 60° E 19:11:16 10° NNE
Meteor 1-31 Rocket 3.7 19:06:45 30° N 19:06:45 30° N 19:08:44 10° N
Cosmos 2034 Rocket 3.9 19:02:24 10° N 19:08:31 61° ENE 19:13:44 15° SSE
Cosmos 1072 Rocket 4.5 19:03:36 10° N 19:09:53 87° W 19:16:03 10° S
ADEOS 4.2 19:12:55 36° NE 19:12:55 36° NE 19:17:08 10° N
Cosmos 1544 Rocket 3.8 19:10:50 10° N 19:14:21 49° NE 19:14:21 49° NE
SL-16 R/B 2.2 19:10:17 10° NNW 19:15:55 62° ENE 19:17:18 48° ESE
Cosmos 2227 Rocket 2.1 19:10:55 10° SSW 19:16:29 65° ESE 19:18:49 35° NE
Cosmos 1634 Rocket 4.3 19:10:48 10° N 19:16:47 42° ENE 19:17:04 42° ENE
Cosmos 1570 Rocket 4.3 19:14:02 10° SSW 19:19:16 66° WNW 19:24:32 10° NNE
Cosmos 1455 Rocket 4.5 19:16:19 10° NNW 19:20:18 38° W 19:24:16 10° SSW
ARIANE 6 FM1 Upper Stage 3.3 19:17:40 10° NW 19:20:45 41° N 19:20:45 41° N
Cosmos 1975 Rocket 3.1 19:17:54 10° SSW 19:22:15 76° W 19:26:36 10° N
CZ-4 R/B 3.0 19:33:01 23° N 19:33:01 23° N 19:34:30 10° N
CZ-4C R/B 3.3 19:27:40 10° W 19:31:56 34° NNW 19:35:03 20° NNE
DNEPR-1 R/B 4.2 19:27:25 10° NW 19:32:16 67° SW 19:34:11 40° SSE
Cosmos 2228 3.9 19:29:15 10° NNW 19:33:16 47° W 19:37:09 11° SSW
Cosmos 1464 Rocket 4.5 19:30:38 10° NNW 19:36:55 62° W 19:43:06 10° S
Cosmos 2208 Rocket 4.4 19:33:56 10° SW 19:39:07 63° WNW 19:43:22 16° NNE
CZ-4B R/B 3.4 19:40:18 51° NNE 19:40:18 51° NNE 19:44:34 10° N
SPOT 5 3.0 19:39:23 52° S 19:40:33 77° WSW 19:45:40 10° NNW
DMSP 5D-2 F-14 4.5 19:43:35 78° ENE 19:43:35 78° ENE 19:49:01 10° NNW
MOS 1 4.2 19:43:58 67° NE 19:43:58 67° NE 19:49:23 10° N
CZ-4B DEB 4.1 19:43:20 66° SSE 19:44:09 89° ENE 19:49:39 10° NNW
CSL-04 Debris 4.4 19:49:11 39° S 19:51:11 69° WSW 19:56:37 10° NNW
CSL-04 Rocket 4.1 19:53:07 34° SSW 19:55:18 59° WSW 20:00:31 10° NNW
Resurs 01 Rocket 4.4 19:56:42 10° SW 19:59:41 18° W 20:02:41 10° NW
Cosmos 2297 Rocket 3.7 19:56:30 10° WSW 20:01:37 34° NW 20:06:06 13° NNE
Cosmos 1943 3.9 19:59:22 10° NNW 20:03:25 43° N 20:03:25 43° N
Lacrosse 5 rocket 4.2 20:17:56 10° NW 20:18:22 12° NW 20:18:22 12° NW
Terra 3.9 20:30:15 21° NNW 20:30:15 21° NNW 20:31:53 10° NNW
Cosmos 2263 Rocket 3.5 20:25:28 10° SW 20:28:28 32° SW 20:28:28 32° SW
ATLAS 2AS CENTAUR R/B 4.0 20:33:43 10° NW 20:38:56 28° N 20:38:56 28° N
Cosmos 2344 3.5 20:35:45 10° SW 20:42:59 72° WNW 20:42:59 72° WNW
USA 267 3.9 20:47:08 46° NNW 20:47:08 46° NNW 20:52:40 10° WNW
SL-16 R/B 4.0 20:55:03 10° NW 20:59:12 25° W 20:59:12 25° W
Cosmos 2227 Rocket 3.9 20:56:06 10° WSW 21:00:43 29° NW 21:00:43 29° NW
CZ-4C R/B 4.5 21:17:42 10° NW 21:20:01 19° NNW 21:20:01 19° NNW
